SCP
0 0 0 0 0 0 0 0 0 0 0 0 0 0 0 0 0 0 0 0 0 0 0 0 0 0 0 0 0 0 0 0 0 0 0 0 0 0 0 0 0 0 0 0
0 0 0 0 0 0 0 0 0 0 0 0 0 0 0 0 0 0 0 0 0 0 0 0 0 0 0 0 0 0 0 0 0 0 0 0 0 0 0 0 0 0 0 0
0 0 0 0 0 0 0 0 0 0 0 0 0 0 0 0 0 0 0 0 0 0 0 0 0 0 0 0 0 0 0 0 0 0 0 0 0 0 0 0 0 0 0 0
0 0 0 0 0 0 0 0 0 0 0 0 0 0 0 0 0 0 0 0 0 0 0 0 0 0 0 0 0 0 0 0 0 0 0 0 0 0 0 0 0 0 0 0
0 0 0 0 0 0 0 0 0 0 0 0 0 0 0 0 0 0 0 0 0 0 0 0 0 0 0 0 0 0 0 0 0 0 0 0 0 0 0 0 0 0 0 0
0 0 0 0 0 0 0 0 0 0 0 0 0 0 0 0 0 0 0 0 0 0 0 0 0 0 0 0 0 0 0 0 0 0 0 0 0 0 0 0 0 0 0 0
0 0 0 0 0 0 0 0 0 0 0 0 0 0 0 0 0 0 0 0 0 0 0 0 0 0 0 0 0 0 0 0 0 0 0 0 0 0 0 0 0 0 0 0
0 0 0 0 0 0 0 0 0 0 0 0 0 0 0 0 0 0 0 0 0 0 0 0 0 0 0 0 0 0 0 0 0 0 0 0 0 0 0 0 0 0 0 0
0 0 0 0 0 0 0 0 0 0 0 0 0 0 0 0 0 0 0 0 0 0 0 0 0 0 0 0 0 0 0 0 0 0 0 0 0 0 0 0 0 0 0 0
0 0 0 0 0 0 0 0 0 0 0 0 0 0 0 0 0 0 0 0 0 0 0 0 0 0 0 0 0 0 0 0 0 0 0 0 0 0 0 0 0 0 0 0
0 0 0 0 0 0 0 0 0 0 0 0 0 0 0 0 0 0 0 0 0 0 0 0 0 0 0 0 0 0 0 0 0 0 0 0 0 0 0 0 0 0 0 0
0 0 0 0 0 0 0 0 0 0 0 0 0 0 0 0 0 0 0 0 0 0 0 0 0 0 0 0 0 0 0 0 0 0 0 0 0 0 0 0 0 0 0 0
0 0 0 0 0 0 0 0 0 0 0 0 0 0 0 0 0 0 0 0 0 0 0 0 0 0 0 0 0 0 0 0 0 0 0 0 0 0 0 0 0 0 0 0
0 0 0 0 0 0 0 0 0 0 0 0 0 0 0 0 0 0 0 0 0 0 0 0 0 0 0 0 0 0 0 0 0 0 0 0 0 0 0 0 0 0 0 0
0 0 0 0 0 0 0 0 0 0 0 0 0 0 0 0 0 0 0 0 0 0 0 0 0 0 0 0 0 0 0 0 0 0 0 0 0 0 0 0 0 0 0 0
0 0 0 0 0 0 0 0 0 0 0 0 0 0 0 0 0 0 0 0 0 0 0 0 0 0 0 0 0 0 0 0 0 0 0 0 0 0 0 0 0 0 0 0
0 0 0 0 0 0 0 0 0 0 0 0 0 0 0 0 0 0 0 0 0 0 0 0 0 0 0 0 0 0 0 0 0 0 0 0 0 0 0 0 0 0 0 0
0 0 0 0 0 0 0 0 0 0 0 0 0 0 0 0 0 0 0 0 0 0 0 0 0 0 0 0 0 0 0 0 0 0 0 0 0 0 0 0 0 0 0 0
0 0 0 0 0 0 0 0 0 0 0 0 0 0 0 0 0 0 0 0 0 0 0 0 0 0 0 0 0 0 0 0 0 0 0 0 0 0 0 0 0 0 0 0
0 0 0 0 0 0 0 0 0 0 0 0 0 0 0 0 0 0 0 0 0 0 0 0 0 0 0 0 0 0 0 0 0 0 0 0 0 0 0 0 0 0 0 0
0 0 0 0 0 0 0 0 0 0 0 0 0 0 0 0 0 0 0 0 0 0 0 0 0 0 0 0 0 0 0 0 0 0 0 0 0 0 0 0 0 0 0 0
0 0 0 0 0 0 0 0 0 0 0 0 0 0 0 0 0 0 0 0 0 0 0 0 0 0 0 0 0 0 0 0 0 0 0 0 0 0 0 0 0 0 0 0
0 0 0 0 0 0 0 0 0 0 0 0 0 0 0 0 0 0 0 0 0 0 0 0 0 0 0 0 0 0 0 0 0 0 0 0 0 0 0 0 0 0 0 0
0 0 0 0 0 0 0 0 0 0 0 0 0 0 0 0 0 0 0 0 0 0 0 0 0 0 0 0 0 0 0 0 0 0 0 0 0 0 0 0 0 0 0 0
0 0 0 0 0 0 0 0 0 0 0 0 0 0 0 0 0 0 0 0 0 0 0 0 0 0 0 0 0 0 0 0 0 0 0 0 0 0 0 0 0 0 0 0
0 0 0 0 0 0 0 0 0 0 0 0 0 0 0 0 0 0 0 0 0 0 0 0 0 0 0 0 0 0 0 0 0 0 0 0 0 0 0 0 0 0 0 0
0 0 0 0 0 0 0 0 0 0 0 0 0 0 0 0 0 0 0 0 0 0 0 0 0 0 0 0 0 0 0 0 0 0 0 0 0 0 0 0 0 0 0 0
Wind_Speed
5 6 5 5 6 7 6 7 7 7 6 8 10 10 9 7 5 4 4 4 4 3 3 3 3 2 1 1 1 1 2 3 4 4 5 5 5 5 6 6 6 5 5 6
3 5 4 4 6 7 7 6 7 6 7 6 6 6 6 6 6 5 5 4 4 3 3 3 3 3 1 1 0 1 2 2 3 4 5 5 5 5 5 5 5 5 6 6
3 3 1 5 7 7 6 6 7 8 8 4 5 8 9 8 7 6 6 5 4 3 3 4 4 3 3 2 1 1 1 2 3 3 4 5 5 5 5 5 5 5 5 6
1 3 2 7 4 4 5 6 7 6 6 9 10 10 8 8 8 7 6 5 4 3 3 3 3 3 3 3 2 2 1 1 2 3 3 4 5 5 5 4 4 4 5 5
3 1 6 6 3 1 1 5 5 7 7 8 5 3 4 7 7 8 7 6 5 4 3 2 3 4 5 3 2 2 1 1 1 1 2 4 5 5 4 3 4 4 4 5
3 1 3 6 2 1 2 5 5 5 8 7 7 3 7 6 7 7 6 5 4 3 3 3 3 5 6 4 2 2 2 2 1 1 1 3 4 4 3 3 3 3 4 5
2 2 7 7 1 3 1 7 5 4 7 9 10 10 6 5 7 7 7 6 5 4 3 4 4 6 6 4 4 4 3 2 1 1 1 2 3 3 3 3 4 4 4 5
4 1 7 5 4 5 9 5 3 3 6 9 9 6 5 7 7 8 7 6 5 4 4 4 4 6 6 6 5 4 3 2 1 1 1 1 2 3 3 4 4 4 4 4
9 8 8 5 8 6 4 4 3 3 5 7 7 7 8 8 8 8 8 7 5 5 5 4 4 6 7 6 5 4 3 3 2 2 1 0 1 2 2 3 3 3 3 3
2 5 4 4 5 5 4 5 4 4 5 7 8 9 9 8 8 7 7 7 6 5 5 5 5 6 7 7 6 5 4 4 3 3 2 1 0 1 1 1 2 2 2 3
3 6 7 7 6 6 5 5 5 4 4 7 8 8 9 8 9 8 7 7 6 6 7 7 6 7 7 7 6 5 4 4 4 4 3 2 1 1 1 1 2 1 1 1
3 5 4 5 9 10 7 6 6 4 3 3 7 9 9 9 9 8 8 7 7 7 7 7 7 7 7 7 7 6 4 4 4 3 3 3 2 1 2 3 3 2 2 1
5 7 3 5 9 14 11 11 8 5 4 4 4 6 8 8 8 8 8 8 9 9 9 8 7 7 8 7 7 7 6 5 4 4 4 4 3 3 2 3 4 4 4 3
7 6 6 8 10 12 12 12 11 10 9 6 5 4 5 6 7 8 10 11 10 9 9 8 8 8 8 8 8 7 6 6 6 5 4 4 4 4 3 3 2 3 4 5
9 7 5 5 8 13 13 14 15 15 14 13 9 6 5 6 8 10 11 10 9 9 9 9 9 10 8 8 9 8 6 5 5 5 4 4 4 4 4 4 3 3 2 2
5 6 8 11 14 15 15 16 15 15 14 13 12 11 9 8 9 9 9 9 9 11 11 11 11 11 8 9 9 7 6 10 8 5 4 4 4 4 4 4 4 4 4 4
7 10 12 13 13 13 13 12 12 12 13 14 15 14 12 10 8 8 8 10 12 13 12 12 13 10 9 10 10 7 6 7 10 6 5 5 5 5 5 4 5 5 5 5
6 6 6 7 8 10 11 12 13 14 14 14 15 15 14 12 11 11 11 9 9 10 10 11 11 10 10 11 10 8 7 6 6 6 6 5 5 5 5 5 6 6 5 4
7 8 8 9 8 8 9 10 11 12 13 15 16 15 14 14 13 13 11 8 9 12 12 11 15 13 11 13 12 8 8 8 7 6 6 7 6 5 5 5 6 6 5 5
6 6 7 8 8 8 9 9 10 11 12 14 14 15 16 16 16 15 13 9 7 8 9 10 12 12 12 12 14 9 9 9 9 7 6 6 6 6 6 6 6 6 6 6
5 5 6 6 7 7 8 8 10 11 12 12 13 14 15 15 15 14 13 11 11 12 11 11 10 9 10 10 14 10 10 10 9 8 8 7 7 7 7 7 6 6 7 7
2 3 4 5 6 7 7 6 7 10 11 12 13 13 14 15 16 14 11 9 13 19 13 8 7 10 12 13 10 10 11 11 10 8 8 8 7 7 8 8 7 7 7 7
2 2 3 4 5 6 7 6 7 8 10 11 11 12 12 12 10 11 14 13 14 21 15 10 12 13 15 12 9 11 11 11 10 10 9 9 8 8 8 8 7 7 7 7
2 3 4 4 4 5 6 7 7 7 8 8 8 9 10 10 10 8 9 17 23 23 15 16 18 15 12 8 8 9 10 10 10 9 9 8 8 8 7 7 7 7 7 8
4 3 3 4 4 4 5 6 6 6 7 7 8 8 7 6 8 10 12 14 21 21 15 18 22 18 9 6 6 8 8 9 9 9 9 8 8 8 8 7 7 7 7 7
4 4 4 4 4 4 4 3 4 5 5 6 7 7 7 6 7 8 9 12 16 19 15 13 14 14 10 8 6 5 6 7 8 8 8 9 9 8 8 8 9 8 7 7
4 4 3 4 4 4 4 4 4 5 5 5 7 7 7 7 7 8 10 10 11 11 12 12 12 12 11 10 9 7 5 4 5 6 7 7 7 7 8 10 8 7 7 6
Wind_Direction
222 214 184 197 200 194 186 193 203 237 237 237 211 206 211 217 221 218 224 224 224 238 253 261 256 260 268 272 310 7 18 14 2 355 358 360 0 358 358 1 7 2 6 4
289 239 209 238 235 214 218 215 222 239 261 244 196 188 204 210 208 212 215 216 217 231 240 243 237 232 215 201 249 51 30 7 359 3 1 358 352 352 356 356 356 2 6 3
308 322 84 278 246 212 216 212 195 217 236 182 176 198 205 205 205 206 205 206 208 224 241 241 227 209 186 183 149 85 38 4 4 5 2 350 346 353 353 352 357 360 360 3
13 35 249 259 263 198 211 239 216 217 211 184 196 204 205 196 192 199 197 198 209 221 240 239 213 182 159 139 122 108 70 4 356 3 357 346 348 348 344 345 351 353 358 360
85 347 293 295 285 178 220 285 236 214 212 202 189 155 255 221 194 190 193 197 206 208 205 199 187 164 144 136 129 118 117 310 315 345 354 350 347 340 338 348 354 354 356 4
100 69 269 266 283 107 81 292 278 200 197 184 142 169 251 226 193 185 185 187 191 186 181 186 182 152 145 155 160 187 216 231 252 291 345 347 340 336 339 348 349 357 13 9
160 235 268 259 219 74 78 256 270 204 191 176 184 204 221 188 180 181 184 191 182 173 185 203 174 152 155 174 200 217 211 206 229 264 285 331 346 346 354 7 12 12 15 9
151 196 269 236 152 187 222 238 256 221 197 192 209 213 193 179 180 182 188 193 184 182 206 211 176 158 168 198 216 216 202 202 223 257 291 24 18 8 12 23 29 15 13 9
181 212 240 221 211 228 200 222 245 224 217 192 190 189 187 188 187 190 194 199 195 191 207 216 192 173 183 210 210 206 202 211 220 225 264 23 47 24 17 23 28 13 15 12
229 272 280 272 263 278 248 246 255 235 210 183 189 192 192 193 195 198 200 201 200 194 206 219 210 199 200 201 197 194 203 212 211 207 219 251 1 35 43 22 17 8 7 2
295 311 337 2 352 317 298 294 290 268 217 197 191 195 196 199 202 203 203 202 196 197 207 218 211 210 210 200 189 193 207 213 208 207 203 207 216 243 240 248 240 253 286 315
271 304 299 325 347 354 350 330 315 296 275 232 200 203 201 205 207 204 205 201 200 205 210 216 208 211 212 203 191 187 199 208 208 207 206 202 205 261 289 261 279 280 265 255
296 296 315 338 1 4 1 350 339 332 301 280 248 217 206 209 211 208 207 203 204 208 210 210 205 210 212 203 195 191 196 202 203 204 203 202 200 209 249 283 281 284 284 282
346 7 26 7 352 353 1 2 6 8 356 335 302 265 229 220 217 211 212 212 209 208 210 208 206 214 213 199 196 200 199 201 195 201 203 203 204 206 207 214 248 276 272 262
6 22 17 347 3 12 11 11 13 7 358 350 339 317 280 245 230 225 222 214 207 208 213 210 212 220 210 195 197 201 197 198 198 200 204 206 206 203 204 208 215 230 253 273
353 19 25 24 20 14 12 12 7 358 351 345 342 333 311 276 253 241 227 209 202 212 215 211 216 219 202 194 197 200 202 205 193 195 203 206 205 203 206 208 211 211 218 223
32 25 18 18 13 10 9 5 359 352 349 348 341 334 329 318 299 275 250 227 217 218 213 210 216 213 199 195 194 197 198 204 200 193 200 204 205 208 209 205 209 213 220 214
39 33 24 14 7 3 1 1 360 356 353 346 342 344 343 337 320 301 279 252 235 232 224 217 215 207 201 197 196 196 194 197 194 198 203 208 211 210 206 207 211 215 223 220
24 21 15 10 5 1 358 357 354 351 351 351 351 347 343 338 330 320 311 279 245 241 238 225 218 209 206 204 196 193 194 197 200 204 204 212 213 212 208 208 210 210 207 200
19 14 10 3 1 360 356 351 349 352 353 352 352 351 348 343 339 333 327 306 277 273 269 238 220 214 211 208 199 195 197 199 201 203 203 205 209 213 212 211 210 209 205 203
11 5 3 358 353 351 348 344 347 348 349 351 352 348 343 339 340 341 337 327 321 317 302 267 238 222 213 208 201 198 199 200 201 202 203 206 210 214 215 214 212 209 208 208
346 344 343 342 343 338 334 336 340 342 344 347 348 347 344 342 342 340 335 328 326 327 317 290 265 240 224 211 203 199 202 203 203 202 202 204 206 211 215 215 214 212 209 208
284 298 313 321 325 321 326 335 339 340 340 340 341 343 341 334 334 337 333 332 331 331 327 309 301 275 239 216 209 205 205 205 205 204 204 205 206 208 211 214 213 211 207 207
278 290 297 305 322 331 327 323 327 328 327 325 328 332 333 332 331 330 322 326 334 335 331 324 319 308 265 231 216 211 209 208 207 207 206 204 204 205 207 208 208 209 209 208
262 272 285 303 307 295 291 304 316 320 325 324 322 323 324 321 320 324 326 329 335 341 336 334 335 326 309 279 240 224 216 211 209 205 204 202 202 204 206 206 207 207 207 208
252 255 258 257 254 259 269 285 297 304 312 316 318 318 319 318 318 322 327 331 335 339 341 338 339 337 329 320 297 262 238 224 215 210 208 206 206 205 206 208 208 207 206 206
262 258 264 274 270 256 253 257 267 279 284 291 301 306 310 314 318 324 328 331 334 336 337 339 340 341 338 334 326 314 288 259 235 219 213 210 207 208 209 207 205 202 199 199